This is the latest recevied weather packets stored in our database for station/object DL9GJ-6. If no packets are shown the sender has not sent any weather packets the latest 10 day(s).
| Time | Temp. | Humidity | Pressure | Rain* | Wind** | Luminosity | Snow |
|---|---|---|---|---|---|---|---|
| 1777659970 | 17.78° C | 40% | 1023.4 hPa | 0 mm | - | 6 W/m² | - |
| 1777659612 | 17.78° C | 39% | 1023.3 hPa | 0 mm | - | 8 W/m² | - |
| 1777656730 | 19.44° C | 35% | 1023.3 hPa | 0 mm | - | 19 W/m² | - |
| 1777656011 | 20° C | 34% | 1023.2 hPa | 0 mm | - | 23 W/m² | - |
| 1777653131 | 21.11° C | 33% | 1023.3 hPa | 0 mm | - | 32 W/m² | - |
| 1777652414 | 21.11° C | 32% | 1023.3 hPa | 0 mm | - | 46 W/m² | - |
| 1777648450 | 21.67° C | 31% | 1023.7 hPa | 0 mm | - | 56 W/m² | - |
| 1777647732 | 22.22° C | 29% | 1023.7 hPa | 0 mm | - | 45 W/m² | - |
| 1777645931 | 22.22° C | 30% | 1023.8 hPa | 0 mm | - | 167 W/m² | - |
| 1777644852 | 22.22° C | 29% | 1023.9 hPa | 0 mm | - | 242 W/m² | - |
| 1777643772 | 22.78° C | 29% | 1024.1 hPa | 0 mm | - | 534 W/m² | - |
| 1777641252 | 22.22° C | 29% | 1024.8 hPa | 0 mm | - | 711 W/m² | - |
| 1777640892 | 22.22° C | 29% | 1024.8 hPa | 0 mm | - | 742 W/m² | - |
| 1777640531 | 22.22° C | 32% | 1024.8 hPa | 0 mm | - | 760 W/m² | - |
| 1777639451 | 21.11° C | 29% | 1025 hPa | 0 mm | - | 789 W/m² | - |
| 1777638730 | 21.67° C | 28% | 1025.1 hPa | 0 mm | - | 805 W/m² | - |
| 1777638011 | 21.11° C | 32% | 1025.2 hPa | 0 mm | - | 812 W/m² | - |
| 1777636570 | 20.56° C | 31% | 1025.4 hPa | 0 mm | - | 840 W/m² | - |
| 1777634411 | 20° C | 32% | 1025.7 hPa | 0 mm | - | 863 W/m² | - |
| 1777633693 | 18.89° C | 30% | 1026 hPa | 0 mm | - | 868 W/m² | - |
| 1777630451 | 18.33° C | 34% | 1026.6 hPa | 0 mm | - | 837 W/m² | - |
| 1777626852 | 16.11° C | 36% | 1026.8 hPa | 0 mm | - | 777 W/m² | - |
| 1777626132 | 15° C | 36% | 1026.9 hPa | 0 mm | - | 756 W/m² | - |
| 1777624693 | 14.44° C | 39% | 1027 hPa | 0 mm | - | 711 W/m² | - |
| 1777623255 | 12.78° C | 40% | 1027.2 hPa | 0 mm | - | 639 W/m² | - |
* Rain latest hour (hover to see other rain measurements)
** Current wind speed in m/s (hover to see current wind gust speed)